Weather Service Report


758 
ASUS41 KCLE 280710
RWRCLE
OHIO REGIONAL WEATHER ROUNDUP
NATIONAL WEATHER SERVICE CLEVELAND, OH
300 AM EDT THU AUG 28 2014

NOTE: "FAIR" INDICATES FEW OR NO CLOUDS BELOW 12,000 FEET WITH NO
SIGNIFICANT WEATHER AND/OR OBSTRUCTIONS TO VISIBILITY.

OHZ001>008-015>018-024>027-034-035-043-044-280800-
   NORTHWEST OHIO
  
CITY           SKY/WX    TMP DP  RH WIND       PRES   REMARKS
DEFIANCE       CLEAR     63  59  87 N3        30.10F                  
FINDLAY        MOCLDY    68  63  84 NE5       30.08S                  
TOLEDO EXPRESS CLEAR     61  59  93 CALM      30.09F                  
TOLEDO EXEC    CLEAR     66  59  78 NE5       30.10F                  
LIMA           FOG       64  62  93 CALM      30.10R VSB 1            
$$

OHZ009>014-019>023-028>033-038-089-280800-
   NORTHEAST OHIO
  
CITY           SKY/WX    TMP DP  RH WIND       PRES   REMARKS
CLE-HOPKINS    PTCLDY    64  56  75 E6        30.10F                  
CLE-LAKEFRONT  CLEAR     66  56  70 E6        30.07F                  
CUY CO. ARPT   NOT AVBL                                               
LORAIN-ELYRIA  CLEAR     64  59  83 CALM      30.10F                  
ASHTABULA      CLEAR     57  53  86 N3        30.10S                  
AKRON-CANTON   PTCLDY    61  56  83 N6        30.09F                  
WOOSTER        PTCLDY    61  58  90 CALM      30.10S                  
MANSFIELD      CLEAR     61  61 100 CALM      30.10F                  
YOUNGSTOWN     MOCLDY    59  55  87 N6        30.08F                  
$$

OHZ042-051>053-060>062-070>072-077>081-280800-
  SOUTHWEST OHIO
  
CITY           SKY/WX    TMP DP  RH WIND       PRES   REMARKS
CINC-COVINGTON PTCLDY    73  68  84 N5        30.06S                  
CINC-LUNKEN    PTCLDY    72  70  93 NE3       30.06S                  
HAMILTON       CLEAR     71  68  90 N3        30.07S                  
DAYTON         CLEAR     67  63  87 NE5       30.10S                  
WRIGHT-PAT AFB CLEAR     68  65  88 NE5       30.08F                  
DAYTON GENERAL CLEAR     68  65  90 NE5       30.07F                  
WILMINGTON     CLEAR     67  65  93 NE3       30.08R FOG              
$$

OHZ036-037-039>041-045>050-054>059-063>069-073>076-082>088-280800-
  CENTRAL AND SOUTHEAST OHIO
  
CITY           SKY/WX    TMP DP  RH WIND       PRES   REMARKS
COLUMBUS       CLEAR     68  61  78 N3        30.08S                  
OSU AIRPORT    CLEAR     65  60  84 NE5       30.08F                  
BOLTON FIELD   CLEAR     65  61  89 NE3       30.09S                  
RICKENBACK AFB CLEAR     68  59  73 NE5       30.07R                  
NEWARK         CLEAR     64  60  87 CALM      30.08S                  
MARION         CLEAR     62  60  93 CALM      30.10S FOG              
LANCASTER      CLEAR     64  61  90 CALM      30.08S                  
ZANESVILLE     CLEAR     66  60  81 CALM      30.08S                  
NEW PHILLY     CLEAR     60  59  96 CALM      30.09S                  
$$

Return to Home page


Western Regional Climate Center, wrcc@dri.edu